Temperature
6 5 5 5 6 7 7 7 8 8 9 9 9 10 10 11 11 12 12 13 14 15 15 15 16 16 16 16 16 15 15 15 15 15 15 15 15 15 15 15 15 15 15 15
5 5 6 7 7 7 7 7 7 8 9 9 9 9 10 10 11 12 13 13 14 15 15 15 16 16 16 16 16 15 16 16 15 15 15 15 15 15 15 15 15 15 15 14
5 6 7 7 7 7 7 7 7 8 8 8 9 8 9 10 11 12 13 13 14 15 15 15 16 16 16 16 16 16 16 16 16 16 15 15 15 15 15 15 15 15 15 14
5 6 6 6 7 7 6 7 8 8 7 7 8 7 8 9 10 11 12 13 14 15 15 15 16 16 16 16 16 16 16 16 16 15 15 15 15 15 15 15 15 15 14 14
5 6 6 6 7 7 7 8 8 8 7 6 7 7 8 9 9 10 11 13 14 15 15 15 16 16 16 16 16 16 16 16 16 15 15 15 15 15 15 15 15 14 14 14
5 6 6 6 7 7 7 7 7 6 6 6 7 7 7 8 9 10 11 12 14 14 15 15 15 16 16 16 16 16 15 15 15 15 15 15 15 15 15 14 14 14 14 14
4 6 6 7 6 7 6 5 5 5 5 6 7 7 8 9 9 10 11 12 14 14 15 15 15 15 15 15 15 15 15 15 15 15 15 15 15 14 14 14 14 14 14 14
4 4 6 6 6 6 6 5 5 5 5 5 7 7 8 9 10 11 12 12 13 13 14 14 14 14 15 15 15 15 15 15 15 15 14 14 14 14 14 14 14 14 14 13
4 4 6 6 6 6 6 5 5 5 5 5 6 7 8 9 9 9 10 11 12 12 13 13 13 14 14 14 14 14 14 14 14 14 14 14 14 14 14 14 13 13 13 13
5 4 5 6 6 6 6 6 4 4 5 5 6 7 7 8 8 9 9 9 10 11 12 12 12 13 13 13 14 14 14 14 14 14 14 14 13 13 13 13 13 13 13 12
5 4 5 5 5 5 5 6 5 4 5 5 5 6 8 8 8 8 8 9 10 10 11 11 11 12 12 12 13 13 13 13 13 13 13 13 13 13 13 12 12 12 12 11
5 4 4 4 6 6 6 6 5 5 5 5 5 6 8 7 7 7 8 8 9 10 10 10 11 11 11 12 12 12 12 12 12 12 12 12 12 12 12 12 11 11 11 11
5 4 3 5 5 6 6 6 6 5 5 4 5 6 8 7 7 7 8 8 8 9 9 9 10 10 10 11 11 11 11 11 11 11 11 11 11 11 11 10 10 10 10 10
6 4 4 5 5 5 5 6 6 5 4 5 5 6 7 7 6 6 7 7 8 8 8 9 9 9 9 10 10 10 10 10 10 10 10 10 10 10 10 10 10 9 9 9
4 4 4 5 5 5 5 6 6 5 5 5 6 6 6 6 6 6 7 7 7 7 8 8 8 8 9 9 9 9 9 9 9 10 10 10 9 9 9 9 9 9 8 8
3 4 5 5 6 5 5 6 6 6 6 6 6 6 6 6 6 6 6 7 7 7 7 7 7 8 8 8 9 9 9 9 9 9 9 9 9 9 8 8 8 8 8 7
3 4 4 4 5 5 5 5 5 5 5 6 5 6 6 6 6 6 6 6 6 6 6 7 7 7 7 8 8 8 8 8 8 8 8 8 8 8 8 8 7 7 7 7
2 3 3 4 4 4 5 5 5 5 5 5 5 5 5 5 5 5 5 6 6 6 6 6 6 6 7 7 7 7 7 8 8 8 8 8 8 7 7 7 7 7 6 6
2 3 3 3 3 4 5 5 5 5 4 4 4 4 4 5 5 5 5 5 5 5 5 6 6 6 6 6 7 7 7 7 7 7 7 7 7 7 7 6 6 6 6 5
2 2 2 3 3 3 4 5 5 5 4 3 3 3 3 4 4 3 4 4 4 4 5 5 5 5 5 6 6 6 6 7 7 7 7 7 6 6 6 6 5 5 5 5
2 2 2 2 3 3 4 4 5 4 4 3 3 3 3 2 2 3 3 3 4 4 4 4 5 5 5 5 5 6 6 6 6 6 6 6 6 5 5 5 5 5 4 4
2 2 2 2 2 3 3 3 3 3 2 2 2 2 2 2 2 2 2 3 3 3 4 4 4 4 4 5 5 5 5 5 5 5 5 5 5 5 5 4 4 4 3 3
2 2 2 2 3 3 3 3 2 2 2 2 2 2 1 1 1 2 2 2 2 3 3 3 3 4 4 4 4 4 4 4 4 5 5 4 4 4 4 4 3 3 3 3
1 2 1 2 2 2 2 2 2 2 2 2 1 1 1 1 1 1 1 1 2 2 2 3 3 3 3 3 3 3 4 4 4 4 4 4 4 3 3 3 3 2 2 2
1 1 1 1 1 1 2 2 2 1 1 1 1 1 1 0 1 1 1 1 1 1 2 2 2 2 3 3 3 3 3 3 3 3 3 3 3 3 2 2 2 2 1 1
-0 0 0 1 1 0 1 1 1 1 0 0 0 0 0 -0 -0 -0 0 0 0 1 1 1 1 2 2 2 2 2 2 2 2 2 2 2 2 2 2 1 1 1 1 1
Wind_Speed
2 4 1 1 1 2 2 4 2 1 1 3 5 6 6 5 5 7 7 7 8 9 7 6 7 7 7 8 10 11 12 12 11 8 8 7 6 6 6 6 11 13 13 13
4 2 2 1 0 2 3 4 2 1 1 1 2 6 6 6 7 9 10 9 9 7 6 6 6 6 8 9 10 10 11 11 11 9 7 6 6 4 5 4 7 11 12 12
1 2 3 1 2 3 3 3 2 2 2 3 1 4 5 5 6 7 8 8 8 9 9 8 8 8 8 9 11 10 11 11 11 10 6 5 4 3 3 5 5 6 10 10
1 3 2 2 1 3 1 0 2 4 3 1 1 2 5 5 7 9 9 9 10 10 10 10 9 7 7 8 8 9 10 10 10 10 9 10 8 7 7 6 5 5 8 8
1 2 2 2 0 2 2 1 3 3 3 1 0 2 6 4 7 10 11 11 11 10 10 10 9 7 6 6 6 7 8 8 8 9 10 10 7 6 5 5 6 6 5 6
1 1 1 1 1 1 2 4 5 4 3 0 4 4 5 5 9 8 8 8 9 8 7 6 5 5 4 4 5 6 6 6 6 8 9 9 9 8 7 6 6 5 4 4
4 3 2 1 3 3 4 5 3 3 1 4 4 4 7 8 8 9 9 7 6 5 5 4 5 5 5 5 5 5 7 6 6 7 7 8 9 9 9 8 7 6 4 4
2 3 2 0 1 2 1 4 5 3 3 2 2 5 7 7 6 5 5 3 2 2 3 4 4 5 5 6 6 6 6 5 5 6 7 6 7 6 6 6 6 6 5 4
1 2 2 0 0 2 3 2 3 3 0 1 3 5 7 4 4 3 1 1 0 1 1 1 2 2 3 4 5 6 7 5 5 5 5 5 5 5 5 5 5 4 4 4
1 0 2 1 2 2 2 3 3 3 1 1 3 3 3 6 5 4 3 2 2 2 1 1 0 1 1 2 2 3 4 5 4 4 4 4 5 5 5 6 6 5 4 4
1 1 2 1 1 3 2 1 2 2 2 3 2 4 3 4 4 3 3 2 2 2 1 1 1 0 1 2 2 3 3 4 4 4 4 4 4 5 5 5 5 5 5 5
1 2 1 3 3 2 3 3 4 2 2 2 2 5 5 2 2 2 3 3 3 2 1 1 0 0 1 1 2 3 3 4 3 4 5 5 5 6 6 6 5 6 6 5
1 2 2 4 3 1 1 2 3 2 1 2 2 4 3 5 6 5 4 4 3 3 2 1 1 1 1 1 2 2 3 4 4 5 6 6 6 6 6 6 6 5 5 5
2 2 3 4 4 2 3 3 3 3 2 3 4 6 7 6 5 6 5 4 3 2 2 1 1 1 1 2 3 3 3 4 5 5 6 6 6 6 6 6 5 5 5 5
3 1 2 3 4 3 3 4 3 5 5 4 4 5 7 5 4 4 4 3 3 2 2 1 1 2 2 2 2 3 3 4 5 6 6 6 6 6 6 6 5 5 5 5
2 1 1 3 2 1 3 5 4 4 4 5 6 7 4 4 2 2 3 3 3 3 3 2 2 2 2 3 3 3 4 4 5 6 6 6 6 6 6 6 5 5 4 4
1 1 1 2 4 3 3 4 2 1 1 2 4 3 4 4 4 4 3 3 3 3 3 3 3 3 3 3 3 4 4 4 5 6 6 6 6 6 6 6 5 5 4 4
2 1 1 1 3 1 3 2 1 1 3 4 2 4 4 3 2 4 4 3 4 4 4 3 3 3 3 3 2 3 3 4 4 5 6 6 7 6 6 6 5 5 4 4
4 2 1 1 1 3 3 3 2 1 2 6 5 6 6 5 3 4 6 6 5 5 5 4 3 3 3 2 1 2 2 3 4 5 5 6 7 7 6 6 6 4 4 4
3 2 2 1 1 3 3 5 5 0 1 4 5 6 7 6 4 5 8 8 7 6 4 4 3 3 3 3 1 2 2 2 4 5 5 5 6 7 7 6 5 4 4 4
1 1 2 2 3 4 4 6 3 1 3 3 4 5 6 4 4 6 8 8 7 6 5 4 3 3 3 3 1 1 1 2 3 2 3 4 5 5 6 5 4 4 4 4
4 3 3 3 3 5 2 2 1 2 2 3 4 4 5 5 6 6 7 7 7 7 6 4 3 3 4 3 1 0 1 2 0 1 2 3 3 4 4 5 5 5 5 5
4 5 4 5 5 1 1 2 1 0 1 2 3 5 5 6 7 7 7 7 7 6 5 4 3 3 3 3 2 1 2 1 0 1 2 2 3 3 4 5 6 5 5 5
3 2 2 3 3 2 2 1 0 1 2 3 4 5 5 6 7 8 7 7 7 6 5 4 3 3 3 3 2 2 1 0 1 1 1 2 2 3 3 4 4 5 5 5
4 3 2 3 2 1 2 1 1 2 3 4 5 5 6 7 8 7 7 7 7 6 5 4 3 4 3 3 2 2 1 0 1 1 1 1 2 3 3 3 4 5 5 6
4 5 5 5 4 4 4 3 2 3 4 5 6 6 6 6 8 8 7 6 6 6 5 4 4 3 3 2 2 2 1 0 1 1 1 2 2 2 2 3 2 5 7 9
Wind_Direction
30 66 86 232 193 154 135 130 137 205 150 157 214 244 254 254 234 234 241 243 245 246 249 229 211 192 178 174 177 185 180 179 172 169 168 170 179 180 180 181 181 181 183 184
38 8 281 236 240 101 96 105 103 46 73 104 226 262 262 249 240 233 231 236 237 245 259 241 217 194 185 182 180 184 185 181 176 176 175 171 164 174 179 173 182 184 183 183
72 292 327 52 103 105 75 113 135 123 34 29 20 297 264 259 252 251 239 236 235 230 235 235 216 199 189 187 184 185 187 185 180 173 158 144 130 125 164 179 188 191 185 181
359 329 357 44 89 121 111 208 129 113 94 351 117 275 273 244 254 250 246 241 240 234 227 222 214 201 193 195 187 180 180 182 180 171 171 170 175 183 193 188 187 183 181 179
334 343 26 57 42 120 160 143 91 107 110 60 176 197 275 250 243 243 241 241 242 236 223 213 208 199 192 186 180 180 174 178 178 176 179 180 182 185 175 170 175 181 181 180
284 303 18 351 12 73 99 68 54 50 74 266 213 191 267 229 224 237 241 238 239 233 220 213 205 186 186 180 171 166 164 178 180 179 179 180 181 174 166 174 181 183 180 178
360 356 352 20 53 23 69 87 63 28 19 247 209 202 254 251 242 235 241 238 232 221 202 199 197 188 186 180 177 167 163 175 181 176 181 186 184 179 181 182 187 181 181 185
33 335 309 346 139 154 130 124 146 169 204 263 227 226 258 269 269 249 232 222 228 229 208 193 194 193 194 188 180 173 172 177 180 180 182 183 180 178 183 182 178 182 183 179
94 308 314 283 142 131 124 143 166 127 36 262 260 278 307 325 342 359 20 64 54 305 271 198 188 196 195 189 186 178 173 173 176 177 171 168 171 168 169 164 163 163 156 150
135 357 317 322 57 40 115 133 101 113 155 263 289 285 285 317 335 353 7 7 350 21 33 47 150 180 187 182 157 138 157 166 167 163 165 162 158 156 152 145 147 144 141 135
104 107 333 11 200 192 144 148 141 147 167 170 245 274 270 280 311 332 343 346 6 12 356 326 303 160 145 125 133 142 150 147 143 144 141 135 133 131 129 132 135 133 130 132
143 125 271 264 267 207 176 189 166 166 235 198 203 276 302 320 338 0 358 352 353 359 353 337 296 194 137 145 150 157 159 156 157 144 132 131 128 125 124 126 125 124 126 129
136 117 34 353 345 355 228 223 196 180 170 197 201 266 321 5 2 355 352 343 339 348 353 0 353 210 195 200 184 175 170 165 154 138 134 132 132 132 133 133 130 127 128 124
100 128 175 199 227 216 248 247 218 188 205 230 226 259 304 328 340 336 333 330 329 332 329 342 322 280 242 223 195 181 180 167 153 143 141 144 148 146 141 136 133 131 131 128
79 155 247 259 255 230 252 265 245 219 220 222 252 270 286 293 292 298 309 323 330 339 332 311 300 269 249 240 211 186 178 173 159 150 152 159 152 143 138 136 135 134 135 138
60 155 295 317 322 351 305 297 268 249 245 241 265 280 285 302 297 315 321 328 324 325 315 305 312 279 248 237 220 196 189 186 165 162 166 156 146 144 145 145 142 140 139 137
29 88 59 298 319 1 322 304 247 205 253 231 257 284 327 340 355 342 331 334 327 322 325 315 302 281 257 245 224 208 201 178 166 169 166 160 156 155 157 152 147 152 151 144
142 105 144 312 10 270 258 328 4 123 23 13 17 357 352 338 12 15 360 337 327 324 321 317 313 315 297 273 242 207 179 168 171 176 173 169 165 165 161 156 161 162 157 158
169 145 125 126 258 278 297 332 350 304 356 5 7 357 347 336 6 5 5 360 338 324 317 312 308 309 315 299 251 172 166 170 176 185 185 180 174 172 170 173 176 170 164 168
123 118 129 155 190 245 275 309 315 268 292 6 11 359 348 350 336 322 343 345 342 336 334 336 341 346 337 325 327 143 172 183 206 205 196 183 176 177 181 183 177 168 166 175
115 131 176 197 222 261 292 307 346 158 278 347 360 352 347 339 298 305 325 335 339 338 337 343 353 350 337 335 16 146 177 223 232 202 175 172 175 179 179 173 168 164 164 166
173 175 190 179 205 249 318 45 124 243 322 345 346 340 330 320 317 320 326 331 336 337 339 342 347 342 343 352 10 172 248 269 259 145 159 171 174 175 169 166 167 166 168 175
195 192 193 196 211 204 111 141 170 124 309 313 318 318 318 315 315 317 318 320 324 326 329 333 329 332 344 354 2 300 299 340 81 143 171 178 173 174 171 172 175 175 179 187
257 190 178 225 240 228 196 156 64 319 294 303 306 310 312 307 308 310 310 310 314 318 318 321 321 319 320 331 341 313 314 5 108 158 190 182 177 181 180 179 183 189 192 197
226 190 194 238 254 302 230 233 282 304 311 313 316 311 307 304 303 303 305 304 304 309 308 306 299 294 297 312 324 336 334 110 142 189 202 195 190 190 196 200 203 204 210 206
206 186 186 219 214 209 246 253 264 283 296 301 307 309 308 304 302 304 302 301 300 302 303 301 297 291 295 302 310 326 328 185 187 231 230 219 211 206 202 207 230 229 225 229
Height
1484 1487 1489 1487 1486 1486 1486 1487 1488 1487 1485 1487 1488 1488 1486 1485 1485 1486 1487 1489 1490 1490 1492 1494 1496 1498 1500 1503 1506 1509 1512 1515 1518 1521 1525 1528 1531 1534 1537 1539 1542 1544 1546 1548
1489 1490 1487 1486 1485 1485 1486 1488 1489 1488 1486 1487 1489 1488 1484 1483 1484 1483 1484 1486 1487 1488 1490 1492 1494 1496 1499 1501 1503 1506 1509 1512 1515 1518 1521 1525 1528 1531 1534 1536 1539 1541 1543 1545
1492 1491 1486 1485 1486 1487 1489 1491 1490 1490 1489 1488 1490 1490 1486 1482 1481 1482 1482 1482 1484 1486 1487 1489 1491 1493 1496 1499 1501 1504 1507 1509 1512 1516 1519 1522 1525 1528 1530 1532 1534 1537 1539 1541
1491 1489 1488 1487 1488 1488 1491 1489 1488 1490 1494 1497 1495 1498 1488 1483 1481 1479 1480 1480 1480 1482 1484 1486 1488 1490 1493 1495 1499 1501 1504 1507 1510 1512 1515 1517 1519 1522 1525 1528 1530 1533 1535 1537
1493 1490 1489 1489 1489 1488 1490 1488 1489 1491 1496 1499 1497 1499 1490 1483 1481 1477 1476 1476 1476 1478 1481 1482 1485 1487 1490 1493 1496 1499 1501 1504 1506 1509 1512 1514 1516 1519 1522 1525 1527 1530 1531 1533
1493 1491 1491 1490 1489 1489 1489 1491 1493 1496 1500 1505 1498 1498 1492 1483 1476 1473 1472 1472 1473 1475 1477 1479 1482 1485 1487 1490 1493 1496 1498 1501 1503 1506 1508 1510 1513 1515 1518 1520 1523 1525 1527 1529
1496 1493 1492 1491 1491 1491 1492 1499 1508 1508 1510 1505 1495 1495 1488 1476 1471 1470 1470 1470 1471 1473 1475 1477 1479 1481 1484 1487 1490 1492 1495 1498 1500 1503 1505 1507 1510 1512 1514 1517 1519 1521 1523 1525
1502 1501 1494 1492 1493 1494 1495 1499 1509 1511 1510 1504 1495 1494 1483 1472 1468 1467 1468 1469 1470 1471 1472 1474 1476 1479 1481 1484 1487 1490 1492 1495 1497 1499 1502 1504 1507 1509 1511 1514 1515 1517 1519 1521
1502 1502 1494 1493 1493 1494 1496 1499 1501 1506 1506 1504 1498 1490 1479 1470 1468 1467 1467 1468 1469 1470 1471 1472 1474 1477 1479 1481 1484 1487 1489 1492 1494 1496 1498 1500 1503 1505 1507 1509 1511 1513 1515 1517
1500 1501 1496 1494 1494 1495 1496 1498 1503 1506 1506 1505 1498 1492 1486 1476 1472 1469 1468 1468 1469 1469 1470 1472 1473 1475 1477 1479 1481 1484 1486 1488 1491 1493 1495 1497 1499 1501 1503 1505 1507 1509 1510 1512
1499 1502 1501 1497 1497 1497 1498 1499 1499 1504 1505 1506 1503 1495 1480 1478 1475 1473 1471 1470 1469 1470 1471 1471 1472 1474 1475 1477 1479 1481 1483 1485 1487 1489 1491 1493 1495 1497 1499 1501 1503 1504 1506 1508
1499 1502 1504 1500 1495 1494 1495 1495 1498 1502 1503 1503 1503 1495 1477 1476 1474 1473 1472 1471 1470 1470 1470 1471 1472 1473 1474 1475 1476 1478 1479 1481 1483 1485 1487 1489 1491 1492 1494 1496 1498 1500 1502 1504
1497 1502 1506 1502 1500 1497 1495 1493 1494 1497 1500 1502 1501 1493 1477 1476 1474 1474 1473 1472 1470 1470 1470 1470 1470 1471 1472 1473 1474 1475 1476 1478 1480 1482 1483 1485 1487 1489 1491 1492 1494 1496 1498 1499
1496 1500 1504 1502 1498 1496 1495 1492 1492 1495 1500 1498 1493 1486 1480 1479 1478 1476 1474 1473 1471 1470 1470 1469 1469 1469 1470 1471 1472 1472 1473 1475 1476 1478 1480 1481 1483 1485 1487 1489 1491 1492 1494 1495
1497 1500 1498 1496 1493 1493 1492 1490 1490 1491 1491 1493 1488 1485 1481 1480 1478 1476 1474 1472 1471 1470 1469 1468 1468 1468 1468 1469 1469 1470 1471 1472 1473 1475 1477 1478 1480 1482 1484 1486 1487 1489 1490 1491
1499 1500 1497 1495 1491 1491 1491 1488 1488 1487 1487 1487 1485 1484 1480 1478 1477 1475 1473 1472 1470 1469 1468 1467 1467 1466 1466 1466 1467 1467 1468 1469 1470 1472 1474 1475 1477 1479 1481 1482 1484 1485 1486 1487
1501 1500 1500 1500 1494 1492 1493 1489 1487 1486 1485 1484 1484 1483 1479 1478 1476 1475 1473 1472 1470 1469 1467 1467 1466 1465 1465 1465 1465 1465 1466 1467 1468 1469 1470 1472 1474 1476 1477 1479 1481 1482 1483 1484
1501 1501 1502 1501 1498 1499 1494 1487 1486 1486 1485 1484 1483 1482 1480 1478 1477 1475 1474 1472 1470 1468 1467 1465 1464 1463 1463 1463 1463 1463 1463 1464 1465 1466 1467 1469 1471 1473 1474 1475 1477 1478 1479 1480
1498 1500 1502 1504 1503 1497 1491 1488 1487 1487 1487 1486 1484 1482 1480 1477 1475 1474 1473 1471 1470 1468 1466 1464 1463 1462 1461 1460 1460 1460 1460 1461 1462 1463 1464 1466 1468 1469 1471 1472 1474 1475 1476 1476
1498 1500 1503 1503 1502 1500 1492 1488 1485 1487 1488 1487 1485 1483 1480 1478 1477 1475 1472 1470 1468 1466 1465 1463 1461 1460 1459 1458 1458 1458 1458 1458 1459 1460 1461 1463 1464 1466 1467 1469 1470 1471 1472 1473
1501 1502 1504 1504 1502 1495 1490 1487 1486 1491 1490 1487 1485 1483 1481 1480 1479 1476 1472 1469 1467 1465 1463 1462 1460 1459 1457 1456 1456 1455 1455 1456 1456 1457 1458 1459 1461 1462 1464 1465 1466 1467 1468 1469
1498 1500 1500 1501 1501 1498 1489 1487 1489 1490 1488 1486 1484 1483 1481 1479 1476 1473 1471 1468 1466 1464 1462 1460 1458 1457 1456 1455 1454 1453 1453 1453 1454 1454 1455 1456 1457 1459 1460 1461 1462 1463 1464 1464
1494 1494 1494 1494 1493 1488 1487 1487 1488 1487 1486 1485 1483 1482 1480 1477 1474 1472 1469 1466 1464 1462 1460 1458 1457 1455 1454 1453 1452 1452 1451 1451 1451 1451 1452 1453 1454 1455 1456 1457 1458 1459 1460 1460
1490 1489 1490 1490 1487 1487 1486 1486 1486 1485 1484 1483 1482 1480 1477 1475 1472 1469 1467 1464 1461 1459 1457 1456 1454 1453 1452 1451 1450 1449 1449 1449 1448 1449 1449 1449 1450 1451 1452 1453 1454 1455 1455 1456
1487 1487 1488 1487 1486 1485 1484 1484 1484 1483 1482 1481 1479 1477 1475 1473 1470 1467 1464 1461 1459 1457 1455 1453 1452 1450 1449 1448 1447 1447 1446 1446 1445 1445 1446 1446 1446 1447 1448 1449 1450 1450 1451 1452
1483 1484 1485 1484 1482 1483 1482 1482 1481 1480 1479 1478 1476 1473 1472 1470 1466 1464 1461 1459 1456 1454 1452 1450 1449 1447 1446 1445 1444 1443 1443 1443 1442 1442 1442 1442 1443 1443 1444 1444 1445 1446 1447 1447